カタログに戻る

OPS 9341

IDSCS 19

Lost軍事MEO
NORAD 3284·PAYLOAD·🇺🇸 United States

打ち上げ Jun 13, 1968 から Cape Canaveral Space Force Station

Loading…

次のパス (今後24時間)

TLE

古いSource: Space-Track

元期: Aug 1, 2026, 05:14 UTC

1  3284U 68050A   26213.21808022 -.00000113  00000-0  00000+0 0  9998
2  3284   7.3005  51.2431 0014030 153.7413  79.2269  1.07854941 50696

AllMySatでOPS 9341をリアルタイム追跡

Download on the App Store